sat.trackr.live / text

‹ back to catalog

STARLINK-5484

NORAD 55628 · 2023-021A

PAYLOAD ACTIVE UNKNOWN

§ Identity

Operator
Country
US
Launch date
2023-02-17
Launch site
AFWTR
Launch vehicle
Mass (kg)
RCS (m²)

Purposes: comms

External: N2YO · Heavens-Above · Gunter

§ Orbital elements

Epoch: 2026-05-25T01:07:13.933056Z

Period
96.11 min
Inclination
69.9998°
Eccentricity
0.0002829
Mean motion
14.98330512 rev/d
Perigee alt
570.1 km
Apogee alt
574.0 km
Semi-major
6,950.2 km
B*
3.9433e-5
RAAN
12.0208°
Arg perigee
269.6302°
Mean anomaly
90.4533°
Rev number
17,973

§ Raw data

STARLINK-54841 55628U 23021A   26145.04668904  .00000378  00000+0  39433-4 0  99922 55628  69.9998  12.0208 0002829 269.6302  90.4533 14.98330512179737

JSON: /api/v1/satellites/55628 · /tle

For live sub-satellite position, see the globe view (requires WebGL).

§ Visibility from observer

Set your observer location to see the next 7 days of passes ≥ 10°. The values pass through the URL so the page stays shareable.

No JS? Fill the form by hand. The geolocation button needs JavaScript.